{"data":{"norad_id":53388,"epoch":"2026-05-24T10:27:35.554752Z","epoch_age_seconds":117571,"freshness":"FRESH","line1":"1 53388U 22097A   26144.43582818  .00000246  00000+0  33570-4 0  9996","line2":"2 53388  53.2133 144.0842 0001111  77.7878 282.3238 15.08836242210287","mean_motion":15.08836242,"eccentricity":0.0001111,"inclination_deg":53.2133,"raan_deg":144.0842,"arg_perigee_deg":77.7878,"mean_anomaly_deg":282.3238,"bstar":3.357e-5,"rev_number":21028,"period_min":95.437792380387,"perigee_km":538.98629790314,"apogee_km":540.52345347792,"semimajor_km":6917.8918756905,"source":"CELESTRAK","updated_at":"2026-05-25T13:38:17.393206Z"}}